Weather History for KXVG - September, 2013

Change the Weather History Date:

Wednesday, September 18, 2013

  Actual Average (KPWC) Record (KPWC)
Temperature  
Mean Temperature 62 °F -  
Max Temperature 68 °F 65 °F 86 °F (1998)
Min Temperature 55 °F 43 °F 26 °F (2012)
Degree Days  
Heating Degree Days 4    
Growing Degree Days 12 (Base 50)    
Moisture  
Dew Point 61 °F    
Average Humidity 97    
Maximum Humidity 100    
Minimum Humidity 88    
Precipitation  
Precipitation 0.00 in - - ()
Sea Level Pressure  
Sea Level Pressure 29.77 in    
Wind  
Wind Speed 5 mph (SE)    
Max Wind Speed 9 mph    
Max Gust Speed -    
Visibility 3 miles    
Events Rain    
Averages and records for this station are not official NWS values.
T = Trace of Precipitation, MM = Missing Value Source: NWS Daily Summary

Daily Weather History Graph

Daily Weather History Graph

Search for Another Location

Airport or City:

Trip Planner

Search our weather history database for the weather conditions in past years. The results will help you decide how hot, cold, wet, or windy it might be!

Date:

Astronomy

Sep. 18, 2013 Rise Set
Actual Time 6:58 AM CDT 7:22 PM CDT
Civil Twilight 6:28 AM CDT 7:52 PM CDT
Nautical Twilight 5:52 AM CDT 8:28 PM CDT
Astronomical Twilight 5:14 AM CDT 9:05 PM CDT
Moon 6:44 PM CDT (9/18) 6:01 AM CDT (9/18)
Length of Visible Light 13h 24m
Length of Day
12h 23m
Waxing Gibbous, 99% of the Moon is Illuminated
Sep 18
Waxing Gibbous
Sep 19
Full
Sep 26
Last Quarter
Oct 4
New
Oct 11
First Quarter

Hourly Weather History & Observations

Time (CDT) Temp. Dew Point Humidity Pressure Visibility Wind Dir Wind Speed Gust Speed Precip Events Conditions
12:16 AM 57.2 °F 53.6 °F 88% 29.91 in 10.0 mi South 6.9 mph - N/A   Overcast
12:36 AM 57.2 °F 55.4 °F 94% 29.90 in 4.0 mi SSE 8.1 mph - N/A   Heavy Drizzle
12:56 AM 55.4 °F 55.4 °F 100% 29.89 in 3.0 mi SSE 6.9 mph - N/A   Light Drizzle
1:16 AM 55.4 °F 55.4 °F 100% 29.88 in 7.0 mi SSE 5.8 mph - N/A   Overcast
1:36 AM 57.2 °F 55.4 °F 94% 29.88 in 7.0 mi SSE 6.9 mph - N/A   Overcast
1:56 AM 55.4 °F 55.4 °F 100% 29.88 in 7.0 mi SSE 6.9 mph - N/A   Overcast
2:16 AM 55.4 °F 55.4 °F 100% 29.87 in 7.0 mi SSE 5.8 mph - N/A   Overcast
2:36 AM 57.2 °F 55.4 °F 94% 29.86 in 7.0 mi SSE 5.8 mph - N/A   Overcast
2:56 AM 55.4 °F 55.4 °F 100% 29.86 in 7.0 mi SSE 5.8 mph - N/A   Overcast
3:16 AM 55.4 °F 55.4 °F 100% 29.85 in 7.0 mi SSE 4.6 mph - N/A   Overcast
3:36 AM 55.4 °F 55.4 °F 100% 29.85 in 2.5 mi SE 5.8 mph - N/A   Overcast
3:56 AM 55.4 °F 55.4 °F 100% 29.85 in 2.5 mi Calm Calm - N/A   Overcast
4:16 AM 57.2 °F 55.4 °F 94% 29.85 in 2.5 mi SE 3.5 mph - N/A   Drizzle
4:36 AM 57.2 °F 55.4 °F 94% 29.84 in 3.0 mi SE 3.5 mph - N/A   Light Drizzle
4:56 AM 57.2 °F 55.4 °F 94% 29.83 in 2.5 mi Calm Calm - N/A   Overcast
5:16 AM 57.2 °F 55.4 °F 94% 29.83 in 1.5 mi SE 3.5 mph - N/A   Overcast
5:36 AM 57.2 °F 55.4 °F 94% 29.82 in 1.2 mi Calm Calm - N/A   Overcast
5:56 AM 57.2 °F 55.4 °F 94% 29.82 in 2.0 mi Calm Calm - N/A   Overcast
6:16 AM 57.2 °F 55.4 °F 94% 29.82 in 2.0 mi Calm Calm - N/A   Overcast
6:36 AM 57.2 °F 55.4 °F 94% 29.81 in 2.0 mi Calm Calm - N/A   Overcast
6:56 AM 57.2 °F 57.2 °F 100% 29.81 in 2.5 mi SE 3.5 mph - N/A   Overcast
7:16 AM 57.2 °F 57.2 °F 100% 29.81 in 1.5 mi SE 3.5 mph - N/A   Overcast
7:36 AM 57.2 °F 57.2 °F 100% 29.82 in 1.0 mi SE 4.6 mph - N/A   Overcast
7:56 AM 57.2 °F 57.2 °F 100% 29.82 in 1.0 mi Calm Calm - N/A   Overcast
8:16 AM 57.2 °F 57.2 °F 100% 29.81 in 1.0 mi ESE 3.5 mph - N/A   Overcast
8:36 AM 57.2 °F 57.2 °F 100% 29.82 in 0.8 mi Calm Calm - N/A Rain Light Rain
8:56 AM 57.2 °F 57.2 °F 100% 29.82 in 1.0 mi ESE 3.5 mph - N/A   Drizzle
9:16 AM 57.2 °F 57.2 °F 100% 29.82 in 1.2 mi Calm Calm - N/A   Drizzle
9:36 AM 57.2 °F 57.2 °F 100% 29.82 in 1.5 mi Calm Calm - N/A   Overcast
9:56 AM 59.0 °F 57.2 °F 94% 29.81 in 3.0 mi SE 3.5 mph - N/A Rain Light Rain
10:16 AM 59.0 °F 57.2 °F 94% 29.80 in 2.5 mi ESE 4.6 mph - N/A   Overcast
10:36 AM 59.0 °F 59.0 °F 100% 29.80 in 2.0 mi SE 5.8 mph - N/A   Overcast
10:56 AM 60.8 °F 59.0 °F 94% 29.80 in 1.5 mi ESE 4.6 mph - N/A   Overcast
11:16 AM 60.8 °F 60.8 °F 100% 29.79 in 2.0 mi SE 4.6 mph - N/A   Overcast
11:36 AM 60.8 °F 60.8 °F 100% 29.79 in 2.5 mi Calm Calm - N/A   Overcast
11:56 AM 60.8 °F 60.8 °F 100% 29.77 in 3.0 mi SE 5.8 mph - N/A   Overcast
12:16 PM 60.8 °F 60.8 °F 100% 29.76 in 5.0 mi SE 6.9 mph - N/A   Overcast
12:36 PM 62.6 °F 62.6 °F 100% 29.76 in 5.0 mi SE 8.1 mph - N/A   Overcast
12:56 PM 62.6 °F 62.6 °F 100% 29.75 in 7.0 mi SE 9.2 mph - N/A   Overcast
1:16 PM 62.6 °F 62.6 °F 100% 29.74 in 7.0 mi SE 8.1 mph - N/A   Overcast
1:36 PM 64.4 °F 62.6 °F 94% 29.74 in 7.0 mi SE 5.8 mph - N/A   Overcast
1:56 PM 64.4 °F 62.6 °F 94% 29.74 in 7.0 mi SE 5.8 mph - N/A   Overcast
2:16 PM 64.4 °F 62.6 °F 94% 29.73 in 4.0 mi ESE 5.8 mph - N/A   Overcast
2:36 PM 64.4 °F 62.6 °F 94% 29.73 in 4.0 mi SE 4.6 mph - N/A   Overcast
2:56 PM 64.4 °F 62.6 °F 94% 29.72 in 3.0 mi SE 5.8 mph - N/A   Overcast
3:16 PM 64.4 °F 64.4 °F 100% 29.72 in 4.0 mi SE 3.5 mph - N/A   Overcast
3:36 PM 66.2 °F 64.4 °F 94% 29.72 in 4.0 mi SE 6.9 mph - N/A   Overcast
3:56 PM 66.2 °F 64.4 °F 94% 29.71 in 4.0 mi SE 5.8 mph - N/A   Overcast
4:16 PM 66.2 °F 64.4 °F 94% 29.70 in 4.0 mi SE 4.6 mph - N/A   Overcast
4:36 PM 66.2 °F 64.4 °F 94% 29.70 in 4.0 mi SE 5.8 mph - N/A   Overcast
4:56 PM 66.2 °F 64.4 °F 94% 29.70 in 3.0 mi SE 6.9 mph - N/A   Overcast
5:16 PM 66.2 °F 64.4 °F 94% 29.70 in 2.5 mi SE 6.9 mph - N/A   Overcast
5:36 PM 66.2 °F 64.4 °F 94% 29.69 in 1.2 mi SE 8.1 mph - N/A   Overcast
5:56 PM 66.2 °F 64.4 °F 94% 29.69 in 1.0 mi SE 6.9 mph - N/A   Overcast
6:16 PM 66.2 °F 64.4 °F 94% 29.69 in 1.2 mi SE 9.2 mph - N/A   Overcast
6:35 PM 66.2 °F 64.4 °F 94% 29.69 in 1.8 mi SSE 6.9 mph - N/A   Overcast
6:56 PM 66.2 °F 64.4 °F 94% 29.69 in 2.5 mi SSE 9.2 mph - N/A   Overcast
7:16 PM 66.2 °F 66.2 °F 100% 29.68 in 2.5 mi SSE 9.2 mph - N/A   Overcast
7:36 PM 66.2 °F 66.2 °F 100% 29.68 in 3.0 mi SE 6.9 mph - N/A   Overcast
7:56 PM 66.2 °F 66.2 °F 100% 29.69 in 3.0 mi North - - N/A   Mostly Cloudy
8:16 PM 66.2 °F 66.2 °F 100% 29.69 in 3.0 mi SE 3.5 mph - N/A   Mostly Cloudy
8:36 PM 66.2 °F 66.2 °F 100% 29.70 in 4.0 mi SE 3.5 mph - N/A   Scattered Clouds
8:56 PM 66.2 °F 66.2 °F 100% 29.71 in 3.0 mi ESE 3.5 mph - N/A   Mist
9:16 PM 66.2 °F 66.2 °F 100% 29.70 in 3.0 mi Calm Calm - N/A   Scattered Clouds
9:36 PM 66.2 °F 66.2 °F 100% 29.70 in 3.0 mi SE 4.6 mph - N/A   Scattered Clouds
9:56 PM 66.2 °F 66.2 °F 100% 29.70 in 3.0 mi SE 4.6 mph - N/A   Scattered Clouds
10:16 PM 66.2 °F 66.2 °F 100% 29.70 in 3.0 mi SE 3.5 mph - N/A   Mostly Cloudy
10:36 PM 66.2 °F 66.2 °F 100% 29.70 in 3.0 mi SE 4.6 mph - N/A   Overcast
10:56 PM 66.2 °F 66.2 °F 100% 29.69 in 3.0 mi ESE 5.8 mph - N/A   Overcast
11:16 PM 66.2 °F 66.2 °F 100% 29.68 in 3.0 mi SE 5.8 mph - N/A   Overcast
11:36 PM 68.0 °F 66.2 °F 94% 29.69 in 3.0 mi SE 5.8 mph - N/A   Overcast
11:56 PM 68.0 °F 66.2 °F 94% 29.69 in 3.0 mi SSE 4.6 mph - N/A   Overcast